Weather History for Chester, CT

Change the Weather History Date:

Monday, December 9, 2013

  Actual Average (KHVN) Record (KHVN)
Temperature  
Mean Temperature 32 °F -  
Max Temperature 35 °F 42 °F 64 °F (1991)
Min Temperature 28 °F 30 °F 12 °F (1976)
Degree Days  
Heating Degree Days 34    
Moisture  
Dew Point 33 °F    
Average Humidity 99    
Maximum Humidity 100    
Minimum Humidity 93    
Precipitation  
Precipitation 0.33 in - - ()
Sea Level Pressure  
Sea Level Pressure 30.09 in    
Wind  
Wind Speed 5 mph (North)    
Max Wind Speed 10 mph    
Max Gust Speed -    
Visibility 3 miles    
Events Rain , Snow    
Averages and records for this station are not official NWS values.
T = Trace of Precipitation, MM = Missing Value Source: NWS Daily Summary

Daily Weather History Graph

Daily Weather History Graph

Search for Another Location

Airport:

Trip Planner

Search our weather history database for the weather conditions in past years. The results will help you decide how hot, cold, wet, or windy it might be!

Date:

Astronomy

Dec. 09, 2013 Rise Set
Actual Time 7:04 AM EST 4:20 PM EST
Civil Twilight 6:33 AM EST 4:51 PM EST
Nautical Twilight 5:58 AM EST 5:26 PM EST
Astronomical Twilight 5:25 AM EST 5:59 PM EST
Moon 11:52 AM EST (12/9) No Moon Set
Length of Visible Light 10h 18m
Length of Day
9h 15m
Waxing Crescent, 51% of the Moon is Illuminated
Dec 9
Waxing Crescent
Dec 17
Full
Dec 25
Last Quarter
Jan 1
New
Jan 7
First Quarter

Hourly Weather History & Observations

Time (EST) Temp. Windchill Dew Point Humidity Pressure Visibility Wind Dir Wind Speed Gust Speed Precip Events Conditions
12:15 AM 28.4 °F 21.2 °F 26.6 °F 93% 30.42 in 1.2 mi NE 6.9 mph - 0.01 in Snow Light Snow
12:35 AM 28.4 °F 21.2 °F 28.4 °F 100% 30.41 in 1.5 mi NE 6.9 mph - 0.05 in Snow Light Snow
12:55 AM 28.4 °F 20.4 °F 28.4 °F 100% 30.39 in 2.5 mi NE 8.1 mph - 0.08 in Snow Light Snow
1:15 AM 28.4 °F 20.4 °F 28.4 °F 100% 30.39 in 2.0 mi NE 8.1 mph - 0.01 in Snow Light Snow
1:35 AM 28.4 °F 21.2 °F 28.4 °F 100% 30.38 in 3.0 mi NE 6.9 mph - 0.02 in Snow Light Snow
1:55 AM 28.4 °F 22.2 °F 28.4 °F 100% 30.37 in 2.0 mi NE 5.8 mph - 0.04 in Snow Light Snow
2:15 AM 28.4 °F - 28.4 °F 100% 30.37 in 2.0 mi Calm Calm - N/A Snow Light Snow
2:35 AM 30.2 °F - 28.4 °F 93% 30.36 in 2.0 mi Calm Calm - 0.01 in Snow Light Snow
2:55 AM 30.2 °F - 28.4 °F 93% 30.35 in 2.5 mi Calm Calm - 0.02 in Snow Light Snow
3:15 AM 30.2 °F - 28.4 °F 93% 30.33 in 2.5 mi Calm Calm - N/A Snow Light Snow
3:35 AM 30.2 °F - 28.4 °F 93% 30.32 in 7.0 mi Calm Calm - N/A Snow Light Snow
3:55 AM 30.2 °F - 28.4 °F 93% 30.31 in 3.0 mi Calm Calm - N/A   Overcast
4:15 AM 30.2 °F - 28.4 °F 93% 30.31 in 5.0 mi Calm Calm - N/A   Overcast
4:35 AM 30.2 °F - 30.2 °F 100% 30.29 in 5.0 mi Calm Calm - N/A Snow Light Snow
4:55 AM 30.2 °F - 30.2 °F 100% 30.28 in 3.0 mi Calm Calm - N/A Snow Light Snow
5:35 AM 30.2 °F - 30.2 °F 100% 30.25 in 4.0 mi Calm Calm - N/A   Overcast
5:55 AM 30.2 °F 21.9 °F 30.2 °F 100% 30.24 in 7.0 mi ENE 9.2 mph - N/A   Overcast
6:15 AM 30.2 °F 21.9 °F 30.2 °F 100% 30.23 in 5.0 mi ENE 9.2 mph - N/A   Overcast
6:35 AM 32.0 °F 24.2 °F 32.0 °F 100% 30.21 in 3.0 mi NE 9.2 mph - 0.02 in Rain Light Rain
6:55 AM 32.0 °F 23.6 °F 32.0 °F 100% 30.19 in 3.0 mi East 10.4 mph - 0.03 in Rain Light Rain
7:15 AM 32.0 °F 25.6 °F 32.0 °F 100% 30.18 in 3.0 mi ENE 6.9 mph - N/A   Overcast
7:35 AM 32.0 °F 25.6 °F 32.0 °F 100% 30.17 in 1.8 mi ENE 6.9 mph - N/A Rain Light Rain
7:55 AM 32.0 °F 26.4 °F 32.0 °F 100% 30.17 in 1.0 mi NE 5.8 mph - 0.01 in Rain Light Rain
8:15 AM 32.0 °F 25.6 °F 32.0 °F 100% 30.15 in 1.0 mi ENE 6.9 mph - 0.04 in Rain Rain
8:35 AM 32.0 °F 27.5 °F 32.0 °F 100% 30.16 in 1.0 mi NE 4.6 mph - 0.07 in Rain Light Rain
8:55 AM 33.8 °F 29.6 °F 33.8 °F 100% 30.17 in 1.0 mi NNE 4.6 mph - 0.09 in Rain Light Rain
9:15 AM 33.8 °F 28.6 °F 33.8 °F 100% 30.15 in 1.0 mi NE 5.8 mph - N/A Rain Light Rain
9:35 AM 33.8 °F 29.6 °F 33.8 °F 100% 30.15 in 1.2 mi NNE 4.6 mph - 0.03 in Rain Rain
9:55 AM 33.8 °F 28.6 °F 33.8 °F 100% 30.13 in 2.0 mi NE 5.8 mph - 0.04 in   Overcast
10:15 AM 33.8 °F 29.6 °F 33.8 °F 100% 30.12 in 3.0 mi NE 4.6 mph - N/A   Overcast
10:35 AM 33.8 °F 29.6 °F 33.8 °F 100% 30.10 in 2.5 mi NE 4.6 mph - N/A   Overcast
10:55 AM 33.8 °F 28.6 °F 33.8 °F 100% 30.08 in 1.0 mi NNE 5.8 mph - N/A   Light Drizzle
11:15 AM 33.8 °F 28.6 °F 33.8 °F 100% 30.07 in 0.8 mi North 5.8 mph - 0.02 in Rain Rain
11:35 AM 33.8 °F 29.6 °F 33.8 °F 100% 30.05 in 1.0 mi NNE 4.6 mph - 0.02 in Rain Light Rain
11:55 AM 33.8 °F 27.0 °F 33.8 °F 100% 30.02 in 0.8 mi NNE 8.1 mph - 0.02 in   Overcast
12:15 PM 33.8 °F 27.7 °F 33.8 °F 100% 30.02 in 1.0 mi NNE 6.9 mph - N/A   Overcast
12:35 PM 33.8 °F 28.6 °F 33.8 °F 100% 29.99 in 1.0 mi NE 5.8 mph - N/A   Overcast
12:55 PM 33.8 °F 27.7 °F 33.8 °F 100% 29.97 in 1.0 mi NNE 6.9 mph - N/A   Overcast
1:15 PM 35.6 °F 29.9 °F 35.6 °F 100% 29.96 in 1.0 mi NNE 6.9 mph - N/A   Overcast
1:35 PM 35.6 °F 30.7 °F 35.6 °F 100% 29.94 in 1.0 mi North 5.8 mph - N/A   Overcast
1:55 PM 35.6 °F 29.9 °F 35.6 °F 100% 29.94 in 0.8 mi North 6.9 mph - N/A   Overcast
2:15 PM 35.6 °F 28.0 °F 35.6 °F 100% 29.94 in 1.0 mi North 10.4 mph - N/A   Overcast
2:35 PM 35.6 °F 29.9 °F 35.6 °F 100% 29.93 in 0.8 mi North 6.9 mph - N/A   Overcast
2:55 PM 35.6 °F 28.6 °F 35.6 °F 100% 29.92 in 0.8 mi North 9.2 mph - N/A   Overcast
3:15 PM 35.6 °F 29.9 °F 35.6 °F 100% 29.93 in 0.8 mi North 6.9 mph - N/A   Overcast
3:35 PM 35.6 °F 29.9 °F 35.6 °F 100% 29.94 in 1.2 mi NNW 6.9 mph - N/A   Overcast
3:55 PM 35.6 °F 29.2 °F 35.6 °F 100% 29.95 in 1.2 mi NW 8.1 mph - N/A   Overcast
4:15 PM 35.6 °F 31.7 °F 35.6 °F 100% 29.93 in 2.0 mi North 4.6 mph - N/A   Overcast
4:35 PM 35.6 °F 29.9 °F 35.6 °F 100% 29.94 in 3.0 mi North 6.9 mph - N/A   Overcast
4:55 PM 33.8 °F 29.6 °F 33.8 °F 100% 29.94 in 5.0 mi NNW 4.6 mph - N/A   Overcast
5:15 PM 33.8 °F 30.8 °F 33.8 °F 100% 29.93 in 3.0 mi NW 3.5 mph - N/A   Overcast
5:35 PM 33.8 °F - 33.8 °F 100% 29.94 in 3.0 mi Calm Calm - N/A   Overcast
5:55 PM 33.8 °F - 33.8 °F 100% 29.94 in 3.0 mi Calm Calm - N/A   Overcast
6:15 PM 33.8 °F 30.8 °F 33.8 °F 100% 29.94 in 3.0 mi West 3.5 mph - N/A   Overcast
6:35 PM 33.8 °F 29.6 °F 33.8 °F 100% 29.94 in 1.0 mi West 4.6 mph - N/A   Overcast
6:55 PM 35.6 °F 31.7 °F 35.6 °F 100% 29.94 in 0.8 mi West 4.6 mph - N/A   Overcast
7:15 PM 35.6 °F 32.8 °F 35.6 °F 100% 29.94 in 1.0 mi West 3.5 mph - N/A   Overcast
7:35 PM 35.6 °F 29.9 °F 35.6 °F 100% 29.95 in 0.8 mi West 6.9 mph - N/A   Overcast
7:55 PM 35.6 °F 29.9 °F 35.6 °F 100% 29.95 in 1.8 mi West 6.9 mph - N/A   Overcast
8:15 PM 35.6 °F 29.2 °F 35.6 °F 100% 29.96 in 2.5 mi West 8.1 mph - N/A   Overcast
8:35 PM 35.6 °F 30.7 °F 35.6 °F 100% 29.96 in 6.0 mi West 5.8 mph - N/A   Overcast
8:55 PM 35.6 °F 29.2 °F 35.6 °F 100% 29.95 in 9.0 mi West 8.1 mph - N/A   Mostly Cloudy
9:15 PM 35.6 °F 30.7 °F 35.6 °F 100% 29.95 in 9.0 mi WSW 5.8 mph - N/A   Mostly Cloudy
9:35 PM 35.6 °F 29.9 °F 35.6 °F 100% 29.95 in 7.0 mi WSW 6.9 mph - N/A   Mostly Cloudy
9:55 PM 35.6 °F 29.9 °F 35.6 °F 100% 29.96 in 6.0 mi WSW 6.9 mph - N/A   Mostly Cloudy
10:15 PM 35.6 °F 30.7 °F 35.6 °F 100% 29.96 in 5.0 mi West 5.8 mph - N/A   Overcast
10:35 PM 35.6 °F 30.7 °F 35.6 °F 100% 29.95 in 5.0 mi West 5.8 mph - N/A   Mostly Cloudy
10:55 PM 35.6 °F 31.7 °F 35.6 °F 100% 29.95 in 7.0 mi West 4.6 mph - N/A   Partly Cloudy
11:15 PM 33.8 °F 28.6 °F 33.8 °F 100% 29.94 in 8.0 mi WSW 5.8 mph - N/A   Clear
11:35 PM 33.8 °F 28.6 °F 33.8 °F 100% 29.95 in 6.0 mi West 5.8 mph - N/A   Clear
11:55 PM 33.8 °F 28.6 °F 33.8 °F 100% 29.94 in 6.0 mi West 5.8 mph - N/A   Clear